Starlink 2030

decayed
NORAD ID: 47647 Int'l Des: 2021-012 Owner: SPXS Country: US Constellation: starlink
LEOCIRCULAR

关于 Starlink 2030

正在加载描述...

高度历史

Altitude vs Time

uPlot chart will show altitude changes over time

两行轨道根数

1 47647U 21012AD 25184.72482778 .12528965 12416-4 27888-3 0 9991
2 47647 53.0232 73.3530 0012024 240.0020 229.8688 16.45543286242446
Epoch: Jul 3, 2025 • Age: 6591 hours

当前状态

Position data unavailable
发射日期 Feb 16, 2021
运行时间 5.1 years
衰减日期 Jul 3, 2025
类型 internet

技术详情

分类 Payload
质量 260.00 kg
干质量 248.00 kg
总质量 260.00 kg
长度 0.20 m
直径 2.80 m
跨度 9.00 m
形状 Box + pan
制造商 SPXS
平台类型 Starlink
阶段状态 Unknown Transfer Status
所有者/国家 SPXS/US

大型星座

Loading constellations...